Location: Tarleton Observatory
(32.2162°N, 98.0976°W)
Time: 22:32:22
(UTC-06:00)

Daily predictions for brighter satellites

Satellite Brightness Start Highest point End
(mag) Time Altitude Azimuth Time Altitude Azimuth Time Altitude Azimuth
Meteor 1-14 Rocket 4.4 18:37:18 10° S 18:43:14 88° E 18:49:15 10° N
ASTRO F (AKARI) 4.4 18:43:06 10° NNE 18:46:41 74° ESE 18:50:03 10° S
SL-16 R/B 2.9 18:42:37 10° N 18:47:39 32° ENE 18:52:39 10° SE
Okean 3 4.2 18:45:47 10° NNW 18:50:01 59° W 18:54:10 10° S
Meteor 1-20 Rocket 4.3 18:46:37 10° S 18:52:19 63° E 18:58:05 10° NNE
Cosmos 2360 4.2 18:47:08 10° NNW 18:52:53 85° ENE 18:58:37 10° SSE
Cosmos 1818 3.6 18:51:02 10° SSW 18:56:22 62° ESE 19:01:45 10° NE
Cosmos 2151 Rocket 3.8 18:52:53 10° SSE 18:57:11 48° E 19:01:32 10° NNE
Cosmos 1745 Rocket 4.2 18:51:02 10° S 18:57:23 84° W 19:03:42 10° N
Cosmos 1340 4.3 18:58:02 10° NE 19:00:21 15° ENE 19:02:40 10° ESE
Cosmos 2292 Rocket 4.2 18:57:49 10° SSE 19:02:02 46° E 19:07:38 10° NNE
Cosmos 1461 4.2 18:59:05 10° N 19:02:06 20° NE 19:04:50 11° E
Cosmos 2322 Rocket 2.4 19:00:58 10° N 19:06:24 48° ENE 19:11:48 10° SE
Okean 1 Rocket 4.3 19:03:30 10° SE 19:06:50 21° E 19:10:09 10° NE
Meteor 1-28 Rocket 4.5 19:03:28 10° N 19:07:06 45° WNW 19:10:44 10° SSW
FREGAT/IRIS 3.1 19:04:35 10° SSE 19:07:28 39° ENE 19:10:23 10° N
Cosmos 1386 Rocket 4.5 19:03:40 10° S 19:09:49 89° W 19:15:55 10° N
Okean 1 3.7 19:07:10 10° N 19:11:02 42° E 19:14:53 10° SSE
SL-8 R/B 3.7 19:08:06 10° NW 19:12:56 74° NE 19:17:44 10° SE
DELTA 2 R/B (1) 4.4 19:08:11 10° WNW 19:13:27 39° N 19:17:41 15° ENE
ATLAS 2A CENTAUR R/B 2.2 19:11:49 10° WSW 19:13:57 32° S 19:18:32 12° ESE
Cosmos 407 Rocket 3.7 19:10:48 10° SSW 19:16:00 78° WNW 19:21:18 10° NNE
Cosmos 676 Rocket 3.9 19:11:48 10° S 19:16:56 72° ESE 19:22:07 10° NNE
ERBS 3.0 19:14:00 10° NW 19:17:25 57° SW 19:20:48 10° SSE
Cosmos 1992 Rocket 4.3 19:12:49 10° NNW 19:18:02 72° WSW 19:23:13 10° S
ALOS 2.7 19:13:52 10° SE 19:18:12 40° ENE 19:22:34 10° N
FENGYUN 3A 3.9 19:17:35 10° SE 19:22:43 46° ENE 19:27:51 10° N
H-2A R/B 3.7 19:21:59 20° ESE 19:23:16 24° ENE 19:26:18 10° NNE
Meteor 1-11 Rocket 3.8 19:28:36 10° S 19:34:10 58° E 19:39:54 10° NNE
Cosmos 1812 3.8 19:32:27 10° NNW 19:36:11 48° W 19:39:52 10° SSW
Cosmos 1238 Rocket 4.0 19:34:13 10° NNE 19:35:11 18° NNE 19:35:11 18° NNE
Helios 1B rocket 3.0 19:38:47 30° ENE 19:39:53 35° E 19:43:40 10° SSE
Cosmos 1140 Rocket 3.3 19:38:47 10° S 19:43:52 76° ESE 19:49:01 10° NNE
Cosmos 1536 Rocket 3.7 19:43:10 10° N 19:47:38 78° W 19:52:06 10° S
Cosmos 2219 3.6 19:43:54 10° S 19:49:14 41° ESE 19:51:31 29° ENE
Spot 2 Rocket 3.4 19:45:37 10° SSE 19:50:36 68° ENE 19:55:38 10° N
Resurs 01 Rocket 1.5 19:46:30 10° SSE 19:50:54 72° ENE 19:55:17 10° N
GPS 2-04 Rocket1 3.4 19:48:13 10° SW 19:52:18 42° SSE 19:52:48 40° SE
Tiangong 2 2.9 19:52:55 10° NW 19:54:42 22° N 19:54:42 22° N
Cosmos 1602 4.2 19:52:01 10° SSW 19:55:49 60° W 19:59:39 10° N
Cosmos 614 Rocket 3.8 19:53:24 10° S 19:58:29 78° ESE 20:03:34 10° NNE
Cosmos 1850 Rocket 3.9 19:53:18 10° S 19:58:30 64° ESE 20:02:31 17° NNE
Cosmos 2360 Rocket 2.3 19:53:47 10° N 19:59:17 50° ENE 20:00:38 42° ESE
HJ-1C 4.4 19:58:40 10° S 20:01:56 47° W 20:05:12 10° NNW
DNEPR-1 R/B 3.7 19:58:16 10° NNW 20:02:26 69° WSW 20:04:45 26° SSE
SL-08 ROCKET BODY 4.3 19:58:00 10° S 20:04:04 70° E 20:10:14 10° N
Cosmos 2327 Rocket 4.4 19:58:22 10° SSE 20:04:22 57° E 20:10:29 10° NNE
SL-19 R/B 4.4 20:02:14 10° SSE 20:07:48 79° WSW 20:13:37 10° NNW
Cosmos 2181 Rocket 4.1 20:01:49 10° N 20:08:04 80° W 20:14:24 10° S
Cosmos 1633 4.4 20:06:30 10° SW 20:09:50 32° W 20:13:11 10° NNW
BREEZE-M DEB (TANK) 4.0 20:07:39 10° NNW 20:09:29 26° NNE 20:09:29 26° NNE
Longmarch 3A Rocket 3.6 20:11:39 10° WSW 20:12:06 15° SW 20:12:06 15° SW
Resurs 1-3 3.8 20:11:39 10° S 20:15:55 68° WSW 20:20:17 10° NNW
ASTRO E2 4.0 20:18:40 10° W 20:21:53 34° SW 20:21:53 34° SW
Cosmos 2184 Rocket 3.9 20:16:40 10° S 20:23:01 87° E 20:29:21 10° N
Cosmos 2074 Rocket 3.9 20:17:10 10° S 20:23:24 89° W 20:29:42 10° N
BREEZE-M DEB (TANK) 4.0 20:25:10 10° NW 20:28:34 38° WNW 20:28:34 38° WNW
Gbstr 26 Del rocket 4.3 20:27:01 10° WSW 20:29:59 31° NW 20:29:59 31° NW
SL-16 R/B 4.1 20:26:51 10° NW 20:31:34 28° WSW 20:36:17 10° SSW
CZ-3C R/B 3.4 20:32:49 10° SW 20:34:31 12° SSW 20:34:31 12° SSW
Cosmos 1536 4.4 20:32:35 10° SSW 20:36:14 34° W 20:37:18 29° NW
Hubble Space Telescope 3.6 20:34:16 10° SSW 20:34:17 10° SSW 20:34:17 10° SSW
Meteor 1-5 Rocket 4.5 20:34:27 10° SSW 20:40:23 72° W 20:46:21 10° N
